Location: Hiekkapohja
(62.3333°N, 25.7833°E)
Time: 23:40:10
(UTC+00:00)

Cosmos 2219 Rocket - Pass Details

Date: 07 August 2020
Orbit: 826 x 848 km, 71.0° (Epoch: 20 September)

Event Time Altitude Azimuth Distance (km) Brightness Sun altitude
Rises 00:01:26 0° 318° (NW) 3,417 5.7 -9.0°
Reaches altitude 10° 00:04:49 10° 297° (WNW) 2,480 4.7 -8.8°
Maximum altitude 00:08:06 16° 262° (W) 2,087 3.9 -8.6°
Drops below altitude 10° 00:11:23 10° 226° (SW) 2,475 4.0 -8.5°
Enters shadow 00:11:42 - 224° (SW) 2,548 4.1 -8.4°
